VA3DLF Weather Reports


time (UTC)temp
C
wind
direction
speed
KPH
gust
KPH
rain 1hr
cm
rain 24hr
cm
rain mn
cm
humidity
%
barometer
mb
20180924212933 18 122 9.7 12.9 0.00 0.00 0.00
20180924212433 18 104 9.7 8.0 0.00 0.00 0.00
20180924211931 18 127 9.7 9.7 0.00 0.00 0.00
20180924211432 18 118 9.7 11.3 0.00 0.00 0.00
20180924210933 18 89 8.0 6.4 0.00 0.00 0.00
20180924210430 18 105 8.0 8.0 0.00 0.00 0.00
20180924205931 18 121 11.3 14.5 0.00 0.00 0.00
20180924204930 18 127 9.7 8.0 0.00 0.00 0.00
20180924204430 18 134 9.7 9.7 0.00 0.00 0.00
20180924203931 18 114 8.0 11.3 0.00 0.00 0.00
20180924203734 18 70 8.0 9.7 0.00 0.00 0.00
20180924203429 18 70 8.0 9.7 0.00 0.00 0.00
20180924202930 18 100 6.4 12.9 0.00 0.00 0.00
20180924201928 18 166 9.7 8.0 0.00 0.00 0.00
20180924201429 18 139 9.7 9.7 0.00 0.00 0.00
20180924195428 18 105 8.0 9.7 0.00 0.00 0.00
20180924194926 18 104 9.7 11.3 0.00 0.00 0.00
20180924194426 18 114 8.0 11.3 0.00 0.00 0.00
20180924193927 18 149 8.0 12.9 0.00 0.00 0.00
20180924193424 18 70 9.7 4.8 0.00 0.00 0.00
20180924193219 18 120 8.0 8.0 0.00 0.00 0.00
20180924192925 18 120 8.0 8.0 0.00 0.00 0.00
20180924192426 18 118 9.7 8.0 0.00 0.00 0.00
20180924191923 18 42 11.3 8.0 0.00 0.00 0.00
20180924191735 18 162 6.4 8.0 0.00 0.00 0.00
20180924191424 18 162 6.4 8.0 0.00 0.00 0.00
20180924190924 18 131 9.7 11.3 0.00 0.00 0.00
20180924190422 18 128 8.0 8.0 0.00 0.00 0.00
20180924185921 18 69 11.3 11.3 0.00 0.00 0.00
20180924185511 18 120 9.7 9.7 0.00 0.00 0.00
20180924185422 18 125 9.7 14.5 0.00 0.00 0.00
20180924184920 18 120 9.7 9.7 0.00 0.00 0.00
20180924184418 18 124 9.7 17.7 0.00 0.00 0.00
20180924183921 18 139 9.7 8.0 0.00 0.00 0.00
20180924183417 18 142 8.0 4.8 0.00 0.00 0.00
20180924182919 17 132 14.5 14.5 0.00 0.00 0.00
20180924182419 18 52 11.3 9.7 0.00 0.00 0.00
20180924181916 18 76 4.8 6.4 0.00 0.00 0.00
20180924181416 17 105 9.7 9.7 0.00 0.00 0.00
20180924181222 17 125 8.0 14.5 0.00 0.00 0.00
20180924180917 17 125 8.0 14.5 0.00 0.00 0.00
20180924175416 17 131 11.3 12.9 0.00 0.00 0.00
20180924174916 17 136 9.7 4.8 0.00 0.00 0.00
20180924174415 17 124 9.7 11.3 0.00 0.00 0.00
20180924172914 17 150 11.3 6.4 0.00 0.00 0.00
20180924172415 17 167 8.0 6.4 0.00 0.00 0.00
20180924171913 16 93 11.3 8.0 0.00 0.00 0.00
20180924171413 17 120 11.3 14.5 0.00 0.00 0.00
20180924170914 16 93 12.9 6.4 0.00 0.00 0.00
20180924170412 16 73 9.7 11.3 0.00 0.00 0.00
20180924165913 16 110 12.9 16.1 0.00 0.00 0.00
20180924164411 16 120 12.9 8.0 0.00 0.00 0.00
20180924164319 16 105 9.7 12.9 0.00 0.00 0.00
20180924164210 16 105 9.7 12.9 0.00 0.00 0.00
20180924163912 16 105 9.7 12.9 0.00 0.00 0.00
20180924163517 16 145 12.9 14.5 0.00 0.00 0.00
20180924162911 16 77 11.3 6.4 0.00 0.00 0.00
20180924162411 16 152 6.4 9.7 0.00 0.00 0.00
20180924161909 15 79 9.7 8.0 0.00 0.00 0.00
20180924161631 15 107 8.0 8.0 0.00 0.00 0.00
20180924161410 15 107 8.0 8.0 0.00 0.00 0.00
20180924161346 15 76 12.9 6.4 0.00 0.00 0.00
20180924160911 15 76 12.9 6.4 0.00 0.00 0.00
20180924160408 15 18 8.0 17.7 0.00 0.00 0.00
20180924155409 15 135 11.3 9.7 0.00 0.00 0.00
20180924141403 11 105 14.5 12.9 0.00 0.00 0.00
20180924140401 11 87 11.3 12.9 0.00 0.00 0.00
20180924113931 6 69 9.7 11.3 0.00 0.00 0.00
20180924113354 6 69 9.7 11.3 0.00 0.00 0.00
20180924101350 6 101 6.4 6.4 0.00 0.00 0.00
20180924095349 6 70 9.7 9.7 0.00 0.00 0.00
20180924094347 6 80 9.7 4.8 0.00 0.00 0.00
20180924092707 6 63 6.4 6.4 0.00 0.00 0.00
20180924092349 6 63 6.4 6.4 0.00 0.00 0.00
20180924091848 6 89 12.9 9.7 0.00 0.00 0.00
20180924091729 6 60 11.3 11.3 0.00 0.00 0.00
20180924091346 6 60 11.3 11.3 0.00 0.00 0.00
20180924073842 7 82 12.9 11.3 0.00 0.00 0.00
20180924071719 6 35 9.7 6.4 0.00 0.00 0.00
20180924071340 6 35 9.7 6.4 0.00 0.00 0.00
20180924065840 6 39 8.0 9.7 0.00 0.00 0.00
20180924063202 6 72 11.3 8.0 0.00 0.00 0.00
20180924062838 6 72 11.3 8.0 0.00 0.00 0.00
20180924060838 6 51 12.9 8.0 0.00 0.00 0.00
20180924055415 7 60 11.3 8.0 0.00 0.00 0.00
20180924055338 7 60 11.3 8.0 0.00 0.00 0.00
20180924051241 7 69 11.3 8.0 0.00 0.00 0.00
20180924050834 7 69 11.3 8.0 0.00 0.00 0.00
20180924050558 7 38 9.7 14.5 0.00 0.00 0.00
20180924050330 7 38 9.7 14.5 0.00 0.00 0.00
20180924045707 7 49 8.0 8.0 0.00 0.00 0.00
20180924045331 7 49 8.0 8.0 0.00 0.00 0.00
20180924042828 7 96 11.3 4.8 0.00 0.00 0.00
20180924041327 7 79 9.7 17.7 0.00 0.00 0.00
20180924040327 7 32 9.7 17.7 0.00 0.00 0.00
20180924035826 7 44 11.3 8.0 0.00 0.00 0.00
20180924035326 7 18 11.3 9.7 0.00 0.00 0.00
20180924034724 8 49 11.3 11.3 0.00 0.00 0.00
20180924034324 8 49 11.3 11.3 0.00 0.00 0.00
20180924033323 8 46 12.9 11.3 0.00 0.00 0.00
20180924033047 8 56 12.9 16.1 0.00 0.00 0.00
20180924032824 8 56 12.9 16.1 0.00 0.00 0.00
20180924032325 8 23 11.3 16.1 0.00 0.00 0.00
20180924031823 8 58 11.3 14.5 0.00 0.00 0.00
20180924031323 8 52 17.7 11.3 0.00 0.00 0.00
20180924030824 8 13 12.9 14.5 0.00 0.00 0.00
20180924025823 8 46 11.3 12.9 0.00 0.00 0.00
20180924025324 8 34 11.3 9.7 0.00 0.00 0.00
20180924023822 8 44 12.9 11.3 0.00 0.00 0.00
20180924023321 8 35 9.7 9.7 0.00 0.00 0.00
20180924023121 8 31 12.9 9.7 0.00 0.00 0.00
20180924022821 8 31 12.9 9.7 0.00 0.00 0.00
20180924022322 8 35 11.3 14.5 0.00 0.00 0.00
20180924021820 8 52 11.3 11.3 0.00 0.00 0.00
20180924020821 9 56 11.3 14.5 0.00 0.00 0.00
20180924015818 9 45 12.9 8.0 0.00 0.00 0.00
20180924014316 10 46 16.1 11.3 0.00 0.00 0.00
20180924012816 10 58 9.7 9.7 0.00 0.00 0.00
20180924012317 10 35 19.3 11.3 0.00 0.00 0.00
20180924011815 10 7 16.1 19.3 0.00 0.00 0.00
20180924010314 11 13 17.7 20.9 0.00 0.00 0.00
20180924005815 11 39 14.5 14.5 0.00 0.00 0.00
20180924005315 11 31 14.5 12.9 0.00 0.00 0.00
20180924004813 12 48 16.1 14.5 0.00 0.00 0.00
20180924004314 12 32 19.3 14.5 0.00 0.00 0.00
20180924003815 12 41 14.5 14.5 0.00 0.00 0.00
20180924003313 12 25 14.5 14.5 0.00 0.00 0.00
20180924002314 13 18 3.2 6.4 0.00 0.00 0.00
20180924001812 13 25 1.6 0.0 0.00 0.00 0.00
20180924001343 13 55 4.8 4.8 0.00 0.00 0.00
20180924001311 13 55 4.8 4.8 0.00 0.00 0.00
20180924000812 13 60 4.8 6.4 0.00 0.00 0.00
20180924000309 14 55 4.8 4.8 0.00 0.00 0.00
20180923235809 13 23 0.0 0.0 0.00 0.00 0.00
20180923235340 15 24 1.6 1.6 0.00 0.00 0.00
20180923235309 15 24 1.6 1.6 0.00 0.00 0.00
20180923234531 15 97 0.0 0.0 0.00 0.00 0.00
20180923234307 15 97 0.0 0.0 0.00 0.00 0.00
20180923233306 16 97 0.0 0.0 0.00 0.00 0.00
20180923233038 16 97 0.0 0.0 0.00 0.00 0.00
20180923232807 16 97 0.0 0.0 0.00 0.00 0.00
20180923232627 16 110 1.6 1.6 0.00 0.00 0.00
20180923232307 16 110 1.6 1.6 0.00 0.00 0.00
20180923230807 16 89 0.0 0.0 0.00 0.00 0.00
20180923230304 16 183 3.2 3.2 0.00 0.00 0.00
20180923225855 16 224 3.2 4.8 0.00 0.00 0.00
20180923225804 16 224 3.2 4.8 0.00 0.00 0.00
20180923225305 16 159 1.6 1.6 0.00 0.00 0.00
20180923224803 17 176 1.6 3.2 0.00 0.00 0.00
20180923224303 17 197 3.2 1.6 0.00 0.00 0.00
20180923222303 17 174 6.4 4.8 0.00 0.00 0.00
20180923221801 17 201 6.4 6.4 0.00 0.00 0.00
20180923214800 17 238 9.7 8.0 0.00 0.00 0.00
20180923213759 18 193 8.0 6.4 0.00 0.00 0.00